Hourly Data Report for February 27, 2017

All times are specified in Local Standard Time (LST). Add 1 hour to adjust for Daylight Saving Time where and when it is observed.

TORONTO CITY
ONTARIO

43°40'00.000" N
79°24'00.000" W
112.50 m
6158355
71508
XTO

Download Data

Hourly Data (February 2017)
Hourly Data Report for February 27, 2017
TIME Temp Definition
°C
Dew Point Definition
°C
Rel Hum Definition
%
Wind Dir Definition
10's deg

Wind Spd Definition
km/h
Visibility Definition
km
Stn Press Definition
kPa
Hmdx Definition


Wind Chill Definition


Weather Definition


00:00 3.1 -3.0 64 LegendMM LegendMM   100.26     LegendNANA
01:00 3.3 -4.2 58 LegendMM LegendMM   100.30     LegendNANA
02:00 3.7 -4.8 54 LegendMM LegendMM   100.35     LegendNANA
03:00 3.9 -4.8 53 LegendMM LegendMM   100.39     LegendNANA
04:00 3.9 -4.7 54 LegendMM LegendMM   100.43     LegendNANA
05:00 3.5 -4.6 55 LegendMM LegendMM   100.46     LegendNANA
06:00 2.9 -4.2 59 LegendMM LegendMM   100.55     LegendNANA
07:00 2.8 -4.1 60 LegendMM LegendMM   100.66     LegendNANA
08:00 3.2 -3.9 60 LegendMM LegendMM   100.75     LegendNANA
09:00 4.5 -3.7 55 LegendMM LegendMM   100.80     LegendNANA
10:00 6.0 -3.2 52 LegendMM LegendMM   100.83     LegendNANA
11:00 7.3 -3.0 48 LegendMM LegendMM   100.92     LegendNANA
12:00 8.6 -2.9 44 LegendMM LegendMM   100.95     LegendNANA
13:00 9.1 -3.7 40 LegendMM LegendMM   100.90     LegendNANA
14:00 9.4 -4.8 36 LegendMM LegendMM   100.86     LegendNANA
15:00 9.4 -5.7 34 LegendMM LegendMM   100.87     LegendNANA
16:00 9.1 -6.3 33 LegendMM LegendMM   100.92     LegendNANA
17:00 8.6 -6.5 34 LegendMM LegendMM   100.96     LegendNANA
18:00 7.9 -6.2 36 LegendMM LegendMM   101.01     LegendNANA
19:00 6.9 -6.5 38 LegendMM LegendMM   101.01     LegendNANA
20:00 7.0 -5.9 39 LegendMM LegendMM   101.05     LegendNANA
21:00 6.3 -6.2 40 LegendMM LegendMM   101.07     LegendNANA
22:00 5.9 -2.9 54 LegendMM LegendMM   101.10     LegendNANA
23:00 5.1 -2.7 57 LegendMM LegendMM   101.09     LegendNANA

Notes on Data Quality.

Legend

  • E = Estimated
  • M = Missing
  • NA = Not Available
Date modified: